Weather History for Peoria, IL

Change the Weather History Date:

Friday, June 8, 2012

  Actual Average Record
Temperature  
Mean Temperature 70 °F 70 °F  
Max Temperature 84 °F 80 °F 96 °F (1934)
Min Temperature 56 °F 59 °F 40 °F (1913)
Degree Days  
Heating Degree Days 0 1  
Month to date heating degree days 10 11  
Since 1 June heating degree days 10 11  
Since 1 July heating degree days 4593 5824  
Cooling Degree Days 5 6  
Month to date cooling degree days 14 39  
Year to date cooling degree days 207 120  
Since 1 June cooling degree days 14 39  
Growing Degree Days 20 (Base 50)    
Moisture  
Dew Point 52 °F    
Average Humidity 57    
Maximum Humidity 86    
Minimum Humidity 28    
Precipitation  
Precipitation 0.00 in 0.12 in 1.65 in (1952)
Month to date precipitation 0.45 0.96  
Year to date precipitation 9.86 15.29  
Snow  
Snow 0.00 in 0.00 in 0.00 in ()
Month to date snowfall 0.0 0.0  
Since 1 June snowfall 0.0 0.0  
Since 1 July snowfall 11.5 24.6  
Snow Depth 0.00 in    
Sea Level Pressure  
Sea Level Pressure 30.03 in    
Wind  
Wind Speed 4 mph (SSW)    
Max Wind Speed 13 mph    
Max Gust Speed 18 mph    
Visibility 10 miles    
Events      
T = Trace of Precipitation, MM = Missing Value Source: NWS Daily Summary

Daily Weather History Graph

Daily Weather History Graph

Search for Another Location

Airport:

Trip Planner

Search our weather history database for the weather conditions in past years. The results will help you decide how hot, cold, wet, or windy it might be!

Date:

Astronomy

Jun. 08, 2012 Rise Set
Actual Time 5:27 AM CDT 8:28 PM CDT
Civil Twilight 4:54 AM CDT 9:01 PM CDT
Nautical Twilight 4:12 AM CDT 9:43 PM CDT
Astronomical Twilight 3:23 AM CDT 10:32 PM CDT
Moon 11:51 PM CDT (6/8) 10:08 AM CDT (6/8)
Length of Visible Light 16h 07m
Length of Day
15h 00m
Waning Gibbous, 77% of the Moon is Illuminated
Jun 8
Waning Gibbous
Jun 11
Last Quarter
Jun 19
New
Jun 26
First Quarter
Jul 3
Full

Hourly Weather History & Observations

Time (CDT) Temp. Dew Point Humidity Pressure Visibility Wind Dir Wind Speed Gust Speed Precip Events Conditions
12:54 AM 60.8 °F 53.6 °F 77% 30.09 in 10.0 mi Calm Calm - N/A   Clear
1:54 AM 59.0 °F 51.8 °F 77% 30.09 in 10.0 mi Calm Calm - N/A   Clear
2:54 AM 57.9 °F 52.0 °F 81% 30.09 in 10.0 mi Calm Calm - N/A   Clear
3:54 AM 57.0 °F 52.0 °F 83% 30.08 in 10.0 mi Calm Calm - N/A   Clear
4:54 AM 57.0 °F 51.1 °F 81% 30.10 in 10.0 mi Calm Calm - N/A   Clear
5:54 AM 55.9 °F 52.0 °F 87% 30.10 in 10.0 mi Calm Calm - N/A   Clear
6:54 AM 62.1 °F 55.9 °F 80% 30.10 in 10.0 mi Calm Calm - N/A   Clear
7:54 AM 68.0 °F 55.0 °F 63% 30.10 in 10.0 mi South 3.5 mph - N/A   Clear
8:54 AM 72.0 °F 55.0 °F 55% 30.10 in 10.0 mi SSW 3.5 mph - N/A   Clear
9:54 AM 77.0 °F 54.0 °F 45% 30.09 in 10.0 mi SSW 5.8 mph - N/A   Clear
10:54 AM 80.1 °F 51.1 °F 36% 30.08 in 10.0 mi SSW 6.9 mph - N/A   Clear
11:54 AM 82.0 °F 50.0 °F 33% 30.06 in 10.0 mi WSW 8.1 mph - N/A   Clear
12:54 PM 82.0 °F 46.9 °F 29% 30.05 in 10.0 mi Variable 4.6 mph - N/A   Clear
1:54 PM 82.9 °F 48.0 °F 29% 30.02 in 10.0 mi SSW 6.9 mph - N/A   Clear
2:54 PM 82.9 °F 48.9 °F 31% 30.01 in 10.0 mi Variable 4.6 mph - N/A   Clear
3:54 PM 82.9 °F 50.0 °F 32% 29.99 in 10.0 mi SW 8.1 mph - N/A   Clear
4:54 PM 82.9 °F 52.0 °F 34% 29.97 in 10.0 mi SSW 6.9 mph - N/A   Clear
5:54 PM 82.9 °F 51.1 °F 33% 29.96 in 10.0 mi SW 8.1 mph - N/A   Clear
6:54 PM 81.0 °F 51.1 °F 35% 29.94 in 10.0 mi SW 8.1 mph - N/A   Clear
7:54 PM 78.1 °F 53.1 °F 42% 29.94 in 10.0 mi SSW 4.6 mph - N/A   Clear
8:54 PM 73.9 °F 53.1 °F 48% 29.94 in 10.0 mi Calm Calm - N/A   Clear
9:54 PM 71.1 °F 54.0 °F 55% 29.95 in 10.0 mi South 3.5 mph - N/A   Clear
10:54 PM 68.0 °F 54.0 °F 61% 29.96 in 10.0 mi Calm Calm - N/A   Clear
11:54 PM 68.0 °F 53.1 °F 59% 29.96 in 10.0 mi Calm Calm - N/A   Clear